www.pogodaiklimat.ru

Погода и климат >> Архив погоды >> Россия >> Хабаровский край >> Аян


АРХИВ ПОГОДЫ в Аяне

Время (UTC), дата Ветер
(напр.,м/с)
 
Видим.   Явления Облачность Т
(С)
Тd
(С)
f
(%)
Тe
(С)
Тes
(С)
Комфортность P
(гПа)
Po
(гПа)
Тmin
(С)
Tmax
(С)
R
(мм)
R24
(мм)
S
(см)
09 11.02 С 1 50 км ясно -20.2 -32.9 31 -23 -23 1018.8 1017.9 -17.2
12 11.02 С 2 50 км 3/0
[Ci fib]
-20.7 -33.4 31 -27 -27 1018.6 1017.8
15 11.02 С 2 50 км 6/0
[Ci fib]
-21.2 -33.4 32 -27 -27 1018.1 1017.2
18 11.02 ЮВ 2 50 км 4/0
[Ci fib]
-21.1 -33.8 31 -27 -27 1017.8 1017.0
21 11.02 Ю 2 50 км 3/0
[Ci fib]
-21.2 -34.1 30 -27 -27 1017.5 1016.7 -21.3 73
00 12.02 Ю 1 50 км 3/0
[Ci fib]
-20.5 -33.5 30 -24 -23 1017.2 1016.4 -21.5
03 12.02 Ю 2 50 км 3/0
[Ci sp]
-17.9 -32.0 28 -23 -21 1016.5 1015.7
06 12.02 Ю 2
{11}
50 км 8/0
[Ci sp]
-17.9 -31.5 29 -23 -23 1016.3 1015.5
09 12.02 Ю 1 50 км 10/0
[Ci sp]
-18.9 -31.8 31 -22 -22 1016.9 1016.0 -17.3
12 12.02 В 1 50 км 10/0
[Ac trans Ci fib]
-19.0 -31.6 32 -22 -22 1017.5 1016.7
15 12.02 Ю 1 50 км 10/0
[Ci fib]
-19.1 -31.8 32 -22 -22 1017.4 1016.6
18 12.02 С 1 50 км 8/0
[Ci fib]
-19.5 -32.3 31 -22 -22 1017.2 1016.4
21 12.02 З 1 50 км 3/0
[Ci fib]
-19.9 -32.4 32 -23 -23 1017.9 1017.1 -19.9 72
00 13.02 С 1 50 км 10/0
[Ci]
-18.4 -32.1 29 -21 -20 1018.2 1017.4 -23.2
03 13.02 ЮЗ 2 50 км 1/0
[Ci fib]
-16.0 -30.9 26 -21 -18 1018.1 1017.3
06 13.02 ЮЗ 2 50 км ясно -15.9 -30.5 27 -21 -20 1018.5 1017.7
09 13.02 С 1 50 км 1/0
[Ci fib]
-20.2 -30.8 38 -23 -23 1019.9 1019.0 -15.5
12 13.02 С 1 50 км 3/0
[Ci fib]
-22.1 -30.9 45 -25 -25 1020.4 1019.6
15 13.02 С 1 50 км ясно -24.4 -30.8 55 -28 -28 1019.8 1019.0
18 13.02 С 2 50 км ясно -23.2 -29.8 55 -30 -30 1018.7 1017.9
21 13.02 С 2 50 км ясно -25.9 -30.9 63 -33 -33 опасность
обморожения
1018.1 1017.3 -26.1 72
00 14.02 С 2 50 км 3/0
[Ac lent]
-24.7 -29.7 63 -31 -31 опасность
обморожения
1017.5 1016.7 -27.1
03 14.02 Ю 3 50 км 3/3 1000 м
[Cu hum]
-15.0 -21.5 58 -22 -20 1015.4 1014.5
06 14.02 Ю 3 50 км 10/0
[Ac cast]
-14.9 -19.9 66 -21 -21 1013.5 1012.7
09 14.02 штиль 0 50 км 10/0
[Ac cuf]
-17.2 -21.0 72 -17 -17 1013.3 1012.4 -14.4
12 14.02 С 1 50 км 3/0
[Ci fib]
-16.2 -25.4 45 -19 -19 1012.5 1011.7
15 14.02 С 2 50 км 3/0
[Ci fib]
-21.6 -27.5 59 -28 -28 1010.7 1009.9
18 14.02 З 1 50 км 4/0
[Ci fib]
-16.2 -28.8 33 -19 -19 1009.7 1008.9
21 14.02 З 2 50 км 6/0
[Ci]
-16.4 -28.8 33 -22 -22 1008.6 1007.8 -23.2 72
00 15.02 З 1 50 км 10/0
[Ac trans]
-15.8 -28.8 32 -18 -18 1007.9 1007.1
03 15.02 З 3
{12}
50 км 8/0
[Ac trans Ci fib]
-14.4 -28.2 30 -21 -19 1005.9 1005.1
06 15.02 З 3
{11}
50 км 3/0
[Ci fib]
-13.5 -27.0 31 -20 -19 1004.4 1003.6
09 15.02 ЮЗ 2
{11}
50 км ясно -14.3 -26.6 34 -19 -19 1004.0 1003.2 -13.2
12 15.02 СЗ 2 50 км 10/0
[Ac lent]
-12.6 -25.1 34 -17 -17 1002.3 1001.6
15 15.02 С 2 50 км 10/0
[Ac und]
-11.8 -23.1 39 -16 -16 1000.0 999.2
18 15.02 штиль 0 50 км 10/0
[]
-14.1 -21.0 56 -14 -14 999.1 998.3
21 15.02 штиль 0 50 км 10/0
[Ac und]
-13.8 -21.3 53 -14 -14 997.7 996.9 -15.0 72
00 16.02 СВ 2 50 км 9/0
[Ac lent]
-9.7 -22.9 33 -14 -14 996.6 995.9
03 16.02 С 2 50 км 1/0
[Cc]
-7.6 -21.3 32 -11 -8 994.7 993.9
06 16.02 штиль 0 50 км 10/0
[Ac lent Cc]
-8.6 -21.0 36 -9 -8 993.8 993.0
09 16.02 СЗ 1 50 км 10/0
[Ac As]
-10.6 -18.7 51 -13 -13 993.6 992.8 -6.7
12 16.02 штиль 0 50 км 10/0
[Ac und]
-12.5 -17.9 64 -13 -13 993.1 992.3
15 16.02 С 2 50 км 10/0
[Ac As]
-8.0 -20.3 36 -12 -12 992.9 992.1
18 16.02 СВ 2 50 км 8/0
[Ac trans]
-9.0 -21.0 37 -13 -13 993.1 992.3
21 16.02 С 1 50 км 6/0
[Ac trans]
-10.9 -21.4 42 -13 -13 993.3 992.5 -13.3 71
00 17.02 СВ 3 50 км 10/0
[Ci sp]
-8.9 -21.9 34 -14 -13 994.7 993.9
03 17.02 СВ 5
{11}
50 км 10/0
[Ci sp]
-8.4 -21.3 34 -16 -14 995.7 994.9
06 17.02 З 1 50 км 10/0
[Ci sp]
-8.6 -23.0 30 -10 -10 997.1 996.3
09 17.02 СВ 1 50 км 10/0
[Ac lent Ci]
-11.0 -22.7 37 -13 -13 999.9 999.1 -7.7
12 17.02 ЮЗ 1 50 км 10/0
[Ac lent Ci fib]
-12.6 -23.9 38 -15 -15 1001.0 1000.2
15 17.02 С 2 50 км 10/0
[Ci fib]
-12.5 -24.9 35 -17 -17 1001.7 1000.9
18 17.02 В 1 50 км 10/0
[Ci fib]
-13.4 -25.4 36 -16 -16 1002.6 1001.8
21 17.02 Ю 1 50 км 5/0
[Ci fib]
-13.5 -25.6 35 -16 -16 1003.7 1002.9 -13.5 71
00 18.02 Ю 1 50 км ясно -12.4 -25.5 33 -15 -13 1004.6 1003.8 -13.8
03 18.02 З 2 50 км ясно -10.2 -25.3 28 -14 -11 1004.9 1004.1
06 18.02 СЗ 1 50 км ясно -9.6 -24.4 29 -12 -10 1005.6 1004.8

 

Местоположение метеостанции Аян (Хабаровский край, Россия): широта 56.45 долгота 138.10 высота над уровнем моря 8 м.

В архиве по умолчанию представлена погода в Аяне за последнюю неделю. Архивные данные за месяц целиком и за предыдущие месяцы, начиная с января 2011 года, Вы можете получить, выбрав интересующий диапазон дат из раскрывающегося списка и нажав кнопку "Ввод!".


*Определитесь, кто Вы:
робот инопланетянин человек

Внимание! Время в таблицах - всемирное. Для получения местного времени необходимо прибавить поправку, которая равна 10 ч.

Смотрите также архив погоды в соседних городах и на ближайших метеорологических станциях:

Погода в Нелькане (Хабаровский край, Россия) (180 км)
Погода в Большом Шантаре (Хабаровский край, Россия) (184 км)
Погода в Джане (Хабаровский край, Россия) (257 км)
Погода в Чумикане (Хабаровский край, Россия) (261 км)
Погода в Литке (Хабаровский край, Россия) (311 км)
Погода в Удском (Хабаровский край, Россия) (318 км)
Погода в Улье (Хабаровский край, Россия) (342 км)
Погода в Усть-Юдоме (Якутия, Россия) (352 км)
Погода в Ныврово (Сахалинская область, Россия) (369 км)
Погода в Югоренке (Якутия, Россия) (370 км)

Пояснения к столбцам:

Ветер - указаны скорость ветра в м/с - средняя за 10 мин, порывы в срок и между сроками (в фигурных скобках) и направление, откуда дует ветер: С - северный, СВ - северо-восточный, В - восточный, ЮВ - юго-восточный, Ю - южный, ЮЗ - юго-западный, З - западный, СЗ - северо-западный.
Видимость - горизонтальная дальность видимости в метрах или километрах. При видимости от 1 до 10 км при отсутствии осадков обычно наблюдается дымка, при ухудшении видимости до 1 км и менее - туман. В сухую погоду видимость может ухудшаться дымом, пылью или мглою.
Явления - указаны атмосферные явления, наблюдавшиеся в срок или в последний час перед сроком; фигурными скобками обозначены явления, наблюдавшиеся между сроками (за 1-3 часа до срока); квадратными скобками обозначены град или гололедные отложения с указанием их диаметра в мм.
Облачность - указаны через наклонную черту общая и нижняя облачность в баллах и высота нижней границы облаков в метрах; квадратными скобками обозначены формы облаков: Ci - перистые, Cs - перисто-слоистые, Cc - перисто-кучевые, Ac - высококучевые, As - высокослоистые, Sc - слоисто-кучевые, Ns - слоисто-дождевые, Cu - кучевые, Cb - кучево-дождевые. Подробнее классификацию облаков см. в Атласе облаков (PDF).
T - Температура воздуха - температура, измеренная на высоте 2 м над землей.
Td - Температура точки росы - температура, при понижении до которой содержащийся в воздухе водяной пар достигнет насыщения.
f - Относительная влажность воздуха - влажноcть воздуха, измеренная на высоте 2 м над землей.
Te - Эффективная температура - температура, которую ощущает одетый по сезону человек в тени. Характеристика душности погоды. При расчете учитывается влияние влажности воздуха и скорости ветра на теплоощущения человека.
Tes - Эффективная температура на солнце - температура, которую ощущает человек, с поправкой на солнечный нагрев. Характеристика знойности погоды. Зависит от высоты солнца над горизонтом, облачности и скорости ветра. Ночью, в пасмурную погоду, а также при ветре 12 м/с и более поправка равна нулю.
P - Атмосферное давление - приведенное к уровню моря атмосферное давление.
Po - Атмосферное давление - измеренное на уровне метеостанции атмосферное давление.
Tmin - Минимальная температура - минимум температуры воздуха на высоте 2 м над землей.
Tmax - Максимальная температура - максимум температуры воздуха на высоте 2 м над землей.
R - Количество осадков - Количество выпавших осадков за период времени, мм. При наведении курсора мыши на число - период времени, за который выпало указанное количество осадков.
R24 - Количество осадков - Количество выпавших осадков за 24 часа, мм.
S - Снежный покров - Высота снежного покрова, см. При наведении курсора мыши на число - состояние снежного покрова и степень покрытия местности в баллах.